Dewpoint
61 60 62 63 64 65 64 64 65 65 65 64 64 63 63 63 62 60 60 61 61 59 58 56 55 54 53 52 52 51 51 51 50 50 49 48 48 48 48 48 48 48 47
59 59 60 62 64 65 64 64 64 63 63 63 63 62 62 62 60 59 58 59 59 59 56 55 55 53 53 52 51 50 50 50 49 49 48 48 47 47 47 47 47 47 47
59 59 59 62 64 64 65 64 64 63 61 61 61 61 60 59 58 57 57 57 56 57 57 54 53 52 52 51 50 49 49 48 48 48 47 47 47 47 46 46 46 46 46
58 57 57 62 64 63 63 63 63 62 61 61 59 58 57 56 55 55 54 54 53 51 54 55 52 50 50 50 49 48 48 47 47 47 46 46 46 46 46 45 45 45 45
58 55 54 61 65 63 62 62 62 61 59 58 56 56 55 54 53 52 52 52 52 49 47 52 52 50 47 47 47 47 48 47 46 46 45 45 45 44 45 45 44 45 45
59 57 54 62 64 62 62 61 61 60 59 57 55 54 54 53 51 50 49 46 48 49 47 47 45 44 47 43 43 44 46 46 45 44 44 44 44 43 43 44 44 43 43
61 58 55 62 64 63 62 62 61 59 57 55 52 49 47 49 49 46 45 44 45 46 47 45 42 40 39 40 39 41 44 44 43 43 42 42 42 42 43 43 42 41 40
61 60 57 58 63 63 63 62 61 58 56 56 55 52 48 45 46 48 44 44 45 43 44 44 43 43 39 34 37 39 41 41 41 41 41 41 40 41 40 40 39 39 39
61 61 60 59 62 62 62 61 61 59 56 57 57 54 50 51 48 44 47 43 45 43 43 43 43 43 41 38 35 37 40 39 38 39 39 38 38 39 38 38 37 37 38
61 61 61 61 62 62 62 61 60 60 59 57 55 49 51 48 46 43 42 45 44 43 45 43 43 44 43 39 34 34 38 38 35 36 36 36 36 36 35 34 35 36 37
61 61 62 62 63 62 62 62 61 60 60 58 55 50 48 46 46 44 42 40 41 41 42 43 43 43 43 41 36 36 39 38 35 34 34 34 33 32 32 33 34 35 36
61 62 62 64 63 63 62 62 61 60 60 59 55 53 48 46 44 43 41 40 40 40 39 41 43 42 43 42 37 37 40 39 37 34 33 32 30 30 30 32 33 34 35
60 62 64 64 63 63 63 62 61 60 59 58 57 53 50 48 47 44 43 39 40 38 39 39 39 40 41 42 39 39 41 40 38 34 32 29 28 29 30 32 33 34 34
61 64 64 64 63 63 62 61 60 59 59 58 57 55 52 49 46 46 44 41 40 39 38 39 39 38 39 40 41 41 36 41 39 37 35 32 30 31 32 33 33 34 35
60 63 64 63 63 63 62 61 60 59 58 58 57 56 53 51 48 47 45 46 46 43 40 41 38 40 38 39 41 39 38 41 40 38 37 36 32 32 33 34 34 34 34
62 63 63 63 63 63 62 62 61 60 58 59 57 55 53 51 49 47 46 47 46 46 44 43 39 39 39 35 40 40 39 41 41 39 38 37 36 35 35 35 34 34 34
63 62 62 62 62 62 62 62 61 60 58 58 56 55 53 52 51 49 48 45 43 44 44 44 39 39 40 40 36 39 39 38 35 40 39 39 38 37 36 37 37 34 34
63 62 62 62 61 61 61 61 60 59 58 57 55 54 53 52 52 51 50 49 47 45 44 45 40 37 38 40 39 39 34 30 34 37 40 40 40 38 36 37 36 34 35
62 62 62 61 61 61 60 60 60 58 58 57 56 55 52 52 52 50 48 49 48 43 42 40 39 37 36 35 37 37 36 36 31 36 36 39 40 39 37 37 36 35 34
59 60 60 60 60 59 59 59 58 58 57 56 56 54 52 52 52 48 47 46 46 44 41 39 38 37 35 35 35 34 33 34 31 25 30 32 36 38 38 37 37 37 35
60 60 58 57 57 58 57 57 56 56 55 54 54 53 53 51 47 46 46 47 44 43 41 39 38 36 35 34 34 34 33 33 34 34 32 31 31 31 31 36 34 37 36
60 59 56 56 56 56 48 48 53 54 54 53 52 51 49 46 44 42 40 39 42 44 42 39 38 36 37 36 36 35 34 33 31 34 32 29 31 29 29 31 34 34 34
57 56 57 57 57 57 43 44 45 54 52 52 50 49 47 46 44 44 37 36 35 35 36 41 39 38 38 37 37 35 34 32 31 30 31 28 29 26 27 21 32 34 34
55 55 55 56 55 54 42 43 43 53 51 49 48 46 46 44 42 40 37 37 36 35 35 32 37 38 38 39 37 36 35 34 32 29 31 29 32 27 28 27 32 32 34
53 54 54 54 53 47 40 40 46 49 47 46 45 44 44 41 37 37 38 36 34 33 33 34 34 33 33 34 34 32 32 30 34 34 32 31 36 34 34 30 28 30 33
50 50 50 51 45 45 39 41 46 47 45 44 43 43 38 38 35 34 38 36 34 34 31 32 33 33 34 33 33 34 32 34 32 34 32 32 34 30 34 34 30 29 28
Lifted_Index
3 3 2 1 0 0 0 0 0 0 1 1 1 1 2 2 3 3 4 5 7 8 9 10 10 11 12 13 13 13 14 14 14 14 15 15 15 15 16 16 15 15 15
4 3 2 1 1 0 0 0 0 1 1 1 1 1 2 2 3 4 5 6 7 8 9 10 11 11 12 13 13 14 14 14 14 15 15 15 15 16 16 16 15 15 15
4 4 3 2 1 1 1 1 1 1 1 1 1 1 2 3 3 4 5 7 8 9 10 11 11 12 12 13 14 14 14 15 15 15 15 16 16 16 16 16 15 15 15
5 5 4 3 1 1 1 1 1 1 1 1 2 2 2 3 4 5 6 7 8 10 11 11 12 13 13 14 14 14 15 15 15 16 16 16 16 16 16 16 15 15 15
5 5 5 3 1 1 1 1 1 1 1 2 2 2 3 3 4 5 6 7 9 10 11 12 13 14 14 15 15 15 15 15 16 16 17 17 17 17 16 16 15 15 15
5 5 5 3 1 1 1 1 1 1 2 2 2 3 3 4 5 5 6 7 9 11 12 13 14 15 16 16 16 16 16 16 16 17 17 17 17 17 17 16 15 15 15
4 5 5 3 1 1 1 1 1 1 2 2 2 3 3 4 5 5 6 8 10 12 12 14 15 16 17 18 18 17 17 17 17 17 18 18 18 17 17 16 16 15 15
3 4 4 3 1 1 1 1 1 1 1 1 2 2 3 4 4 5 6 8 10 12 13 14 15 16 17 18 19 19 18 18 18 18 19 18 18 18 17 16 16 16 16
3 3 3 3 2 1 1 1 1 1 1 1 1 2 2 3 3 4 6 7 9 11 13 14 15 16 17 18 20 20 20 19 19 19 19 19 19 18 17 17 17 16 16
2 2 2 2 1 1 1 1 1 0 0 0 1 1 1 2 2 3 4 6 8 10 12 13 14 16 17 18 20 21 21 21 21 20 20 20 19 19 18 17 17 17 17
1 1 1 1 1 1 1 1 0 -0 -0 0 0 0 1 1 2 2 3 4 6 8 11 12 14 15 16 18 20 21 21 21 21 21 21 21 20 19 18 18 18 18 17
1 1 0 0 0 0 0 -0 -0 -0 -0 -0 -0 -0 0 1 1 2 2 3 4 6 9 11 13 14 15 17 19 20 21 21 21 21 21 21 20 19 19 19 19 18 18
0 -0 -0 -0 -0 0 -0 -0 -0 -0 -0 -1 -1 -0 -0 0 1 1 2 3 3 5 8 10 12 13 14 16 18 20 20 21 21 21 21 21 20 19 19 19 19 19 18
-0 -1 -1 -1 -0 -0 -0 -1 -1 -1 -1 -1 -1 -1 -0 0 1 1 2 3 3 4 7 9 11 12 13 15 17 19 20 21 21 21 21 20 20 19 19 19 19 19 19
-1 -1 -1 -1 -1 -1 -1 -1 -1 -1 -1 -1 -1 -1 -1 -0 0 1 2 3 3 4 6 9 10 11 12 14 17 18 19 20 21 21 20 20 20 19 19 19 19 19 19
-1 -1 -1 -1 -1 -1 -2 -2 -2 -2 -2 -1 -1 -1 -1 -0 0 1 2 2 3 4 6 8 10 11 12 13 15 17 18 19 20 20 20 19 19 19 19 19 19 19 19
-1 -1 -1 -1 -1 -2 -2 -2 -2 -2 -2 -2 -1 -1 -0 -0 0 1 1 2 3 4 6 8 9 10 11 12 14 16 17 17 18 19 19 19 19 19 19 19 19 20 20
-2 -1 -1 -1 -1 -2 -2 -2 -2 -2 -2 -2 -1 -1 -1 -0 0 1 1 2 3 5 6 8 9 10 11 11 13 15 16 16 16 17 18 19 19 19 19 19 19 20 20
-1 -1 -1 -2 -2 -2 -2 -2 -2 -2 -2 -1 -1 -1 -1 -0 0 1 2 3 4 6 7 8 9 10 11 12 13 13 14 14 15 16 17 19 19 19 19 19 19 19 20
-1 -1 -1 -1 -1 -1 -1 -1 -1 -1 -1 -1 -1 -1 -0 0 1 2 2 3 5 7 8 9 9 10 11 12 13 13 13 13 14 15 16 18 19 19 19 19 19 19 19
-1 -1 -1 -1 -1 -1 -1 -1 -1 -1 -1 -1 -1 -0 0 1 2 2 3 4 7 8 9 9 10 11 12 13 13 13 13 13 14 15 16 17 18 18 19 19 19 19 19
-1 -1 -1 -1 -1 -0 -0 -0 -0 0 -0 -0 -0 0 1 2 3 3 4 6 9 10 10 11 12 13 14 14 14 14 14 14 14 15 16 17 17 18 18 19 19 19 19
-1 -1 -1 -1 -0 0 1 1 1 2 1 1 1 2 2 3 4 4 6 9 11 12 12 12 13 14 14 14 14 14 15 15 15 16 16 16 17 18 18 19 19 19 20
-1 -1 -0 0 0 1 1 2 3 3 3 3 2 3 3 4 5 7 10 12 13 13 13 14 15 15 15 15 15 15 16 16 16 16 16 16 16 17 18 18 19 19 20
-1 -0 0 0 1 2 2 3 4 4 4 4 4 4 4 4 7 10 13 13 13 13 14 14 15 16 16 16 16 16 16 16 15 16 16 17 17 17 17 17 18 19 20
-0 -0 0 1 1 2 3 3 4 5 5 5 4 4 4 5 9 12 13 13 13 13 14 15 15 16 16 16 17 17 16 15 15 15 17 17 17 17 17 17 18 19 19